Starlink 30947

operational
NORAD ID: 58473 Int'l Des: 2023-186 Owner: SPXS Country: US Constellation: starlink
LEOCIRCULAR

Starlink 30947について

説明を読み込み中...

リアルタイム位置

3D地球を読み込み中...

次回通過

高度履歴

Altitude vs Time

uPlot chart will show altitude changes over time

軌道要素

1 58473U 23186A 25259.15752666 .00001065 00000-0 93873-4 0 9994
2 58473 43.0030 296.1317 0001367 274.8056 85.2630 15.02546429 99591
Epoch: Sep 16, 2025 • Age: 14 hours

現在のステータス

高度 570.8 km
速度 7.58 km/s
衛星直下点 -41.25°S, 78.76°W
打ち上げ日 Dec 3, 2023
運用期間 1.7 years
タイプ internet

技術仕様

分類 Payload
質量 730.00 kg
乾燥質量 700.00 kg
総質量 730.00 kg
長さ 0.30 m
直径 4.10 m
スパン 29.00 m
形状 Box + pan
製造者 SPXS
バスタイプ Starlink V2M
フェーズステータス In Orbit
所有者/国 SPXS/US

大規模コンステレーション

Loading constellations...